Regional Weather Roundup
Issued by NWS

Home | Current Version | Previous Version | Graphics & Text | Print | Product List | Glossary Off
Versions: 1 2 3 4 5 6 7 8 9 10 11 12 13 14 15 16 17 18 19 20 21 22 23 24 25 26 27 28 29 30 31 32 33 34 35 36 37 38 39 40 41 42 43 44 45 46 47 48 49 50

000
ASUS43 KMKX 231421
RWRWI

WISCONSIN REGIONAL WEATHER ROUNDUP
NATIONAL WEATHER SERVICE MILWAUKEE/SULLIVAN WI
900 AM CDT SUN APR 23 2017

NOTE: "FAIR" INDICATES FEW OR NO CLOUDS BELOW 12,000 FEET WITH NO
SIGNIFICANT WEATHER AND/OR OBSTRUCTIONS TO VISIBILITY.

WIZ001-002-006>008-014>016-023>028-231500-
NORTHWEST WISCONSIN

CITY           SKY/WX    TMP DP  RH WIND       PRES   REMARKS
SUPERIOR ARPT  MIX PCPN  34  34 100 E13       30.22S WCI  25
ASHLAND        CLOUDY    34  33  96 NE9       30.22S WCI  27
HAYWARD        CLOUDY    37  33  85 NE13      30.16F WCI  29
SIREN          CLOUDY    39  37  90 NE13      30.16R WCI  32
CUMBERLAND     CLOUDY    45  36  70 E13       30.12R
RICE LAKE      PTSUNNY   47  39  73 NE10      30.13S
CHETEK         PTSUNNY   47  39  74 NE6       30.12S
LADYSMITH      CLOUDY    45  38  76 N14       30.14S
EAU CLAIRE     MOSUNNY   51  39  63 NE14      30.09S
MENOMONIE      MOSUNNY   51  39  63 N13       30.10R
NEW RICHMOND   SUNNY     50  38  64 E9        30.10F
OSCEOLA        MOSUNNY   49  40  70 NE14      30.14S
$$

WIZ003>005-009-010-017-018-231500-
NORTH CENTRAL WISCONSIN

CITY           SKY/WX    TMP DP  RH WIND       PRES   REMARKS
MANITOWISH WTR FLURRIES  32  32 100 NE7       30.16R WCI  26
ARBOR VITAE    LGT RAIN  37  34  89 N8        30.14R WCI  31
WOODRUFF       LGT RAIN  37  34  89 N8        30.14R WCI  31
RHINELANDER    CLOUDY    42  40  92 NE12G17   30.12R
EAGLE RIVER    LGT RAIN  37  32  83 NE8       30.15R WCI  30
LAND O LAKES   LGT SNOW  34  32  94 NE8       30.17R VSB 3/4 WCI  27
PHILLIPS       LGT RAIN  40  37  87 NE10      30.13R WCI  34
TOMAHAWK       CLOUDY    45  38  78 N6        30.12R
MEDFORD        SUNNY     48  39  72 N10       30.09R
MERRILL        MOSUNNY   49  39  67 N8        30.10R
$$

WIZ029-030-035-036-043>047-231500-
CENTRAL WISCONSIN

CITY           SKY/WX    TMP DP  RH WIND       PRES   REMARKS
WAUSAU         MOSUNNY   52  37  56 NW3       30.07R
MOSINEE        MOSUNNY   54  37  54 W5        30.09S
MARSHFIELD     SUNNY     54  37  52 W8        30.07S
STEVENS POINT  SUNNY     54  34  47 W5        30.09S
WAUPACA        SUNNY     62  34  35 W6        30.09R
WAUTOMA        SUNNY     60  37  42 SW8       30.09S
WISC RAPIDS    SUNNY     57  36  45 NW8       30.10R
CAMP DOUGLAS   MOSUNNY   61  37  41 W12       30.09S
$$

WIZ011>013-019>022-031-037>040-048>050-231500-
NORTHEAST WISCONSIN

CITY           SKY/WX    TMP DP  RH WIND       PRES   REMARKS
ANTIGO         MOSUNNY   49  38  65 NE12      30.09R
SHAWANO        SUNNY     55  35  47 NE3       30.10R
OCONTO         MOSUNNY   45  38  76 E10G18    30.13R
STURGEON BAY   MOSUNNY   44  37  76 N14       30.13R
GREEN BAY      SUNNY     57  37  47 N6        30.11R
MANITOWOC      SUNNY     60  33  36 W10       30.09S
APPLETON       MOSUNNY   55  32  41 W12       30.07S
CLINTONVILLE   SUNNY     55  32  41 NW5       30.09S
OSHKOSH        SUNNY     58  35  42 W8        30.08S
$$

WIZ032>034-041-042-053>061-231500-
SOUTHWEST WISCONSIN

CITY           SKY/WX    TMP DP  RH WIND       PRES   REMARKS
LA CROSSE      SUNNY     56  40  55 SE8       30.10S
SPARTA         SUNNY     55  38  51 W7        30.11S
VIROQUA        SUNNY     56  36  47 W6        30.11S
BOSCOBEL       SUNNY     54  38  54 S5        30.13F
PRAIRIE DU CHI SUNNY     54  37  53 CALM      30.13S
PLATTEVILLE    SUNNY     54  36  50 W8        30.15S
$$

WIZ056-057-062-063-064-067-068-231500-
SOUTH CENTRAL WISCONSIN

CITY           SKY/WX    TMP DP  RH WIND       PRES   REMARKS
REEDSBURG      SUNNY     55  38  53 CALM      30.11S
BARABOO/DELLS  SUNNY     58  34  41 SW6       30.11S
LONE ROCK      SUNNY     51  39  63 CALM      30.13F
MINERAL POINT  SUNNY     54  36  50 SW7       30.14S
MADISON        MOSUNNY   56  32  40 W6        30.12S
MIDDLETON      SUNNY     59  34  39 W9        30.13S
WATERTOWN      SUNNY     55  37  49 SW7       30.12S
MONROE         SUNNY     55  32  41 W10       30.14S
JANESVILLE     SUNNY     55  32  41 SW6       30.13F
$$

WIZ051-052-058>065-066-070>072-231500-
SOUTHEAST WISCONSIN

CITY           SKY/WX    TMP DP  RH WIND       PRES   REMARKS
MILWAUKEE      MOSUNNY   58  28  32 W10       30.13S
WAUKESHA       SUNNY     55  30  38 W5        30.14S
MILWAUKEE/TIMM SUNNY     55  27  33 SW9       30.13S
RACINE         SUNNY     57  27  31 W9        30.14F
KENOSHA        SUNNY     57  32  38 SW8       30.13F
FOND DU LAC    SUNNY     56  34  43 SW10      30.10S
SHEBOYGAN      SUNNY     58  37  45 SW7       30.10S
WEST BEND      SUNNY     57  32  38 W6        30.11S
JUNEAU         SUNNY     52  37  55 SW7       30.13R
$$

LSZ147-162-231500-
LAKE SUPERIOR

STATION/POSITION TIME  TEMP    WIND        PRES    WAVE
                       AIR SEA DIR/SP/G            HT/PER
                 (UTC) (F)     (DEG/KT/KT) (MB)    (FT/S)
DEVILS ISLAND    1400   32      60/ 10/ 11 1024.7S
PORT WING        1340   34      50/ 15/ 21 1023.7R
SAXON HARBOR     1340   35      60/ 14/ 18 1023.0R
$$

LMZ867-665-643>646-231500-
LAKE MICHIGAN

STATION/POSITION TIME  TEMP    WIND        PRES    WAVE
                       AIR SEA DIR/SP/G            HT/PER
                 (UTC) (F)     (DEG/KT/KT) (MB)    (FT/S)
CHAMBERS ISLAND  1340   39     360/ 14/ 19 1020.3R
N MID LAKE BUOY  1350   38 37   20/ 16/ 17 1021.6R   2/ 3
NORTHPORT PIER   1340   39      10/ 14/ 17 1021.0R
SISTER BAY       1151   43      20/ 14/ 18   N/A
KEWAUNEE LAKESHO 1354   44      40/ 14/ 22 1019.6R
SHEBOYGAN LAKESH 1400   58     250/  9/ 11 1019.0S
PORT WASHINGTON  1340   58     270/  9/ 13 1020.3S
MILWAUKEE LAKESH 1350   56     260/  8/  9   N/A
KENOSHA   LAKESH 1400   56     260/  9/ 11 1020.3
$$

TC  - TEMPERATURE IN CELSIUS
VSB - VISIBILITY IN STATUTE MILES
WCI - WIND CHILL INDEX
HX  - HEAT INDEX





USA.gov is the U.S. government's official web portal to all federal, state and local government web resources and services.